Location: Ehingen
(48.2869°N, 9.7112°E)
Time: 07:51:13
(UTC+02:00)

ISS - Visible Passes

Search period start: 09 May 2021 00:00
Search period end: 19 May 2021 00:00
Orbit: 418 x 421 km, 51.6° (Epoch: 08 May)

Date Brightness Start Highest point End Pass type
(mag) Time Alt. Az. Time Alt. Az. Time Alt. Az.
09 May -1.9 02:03:26 26° ENE 02:03:26 26° ENE 02:05:04 10° ENE visible
09 May -2.7 03:36:22 17° WNW 03:38:40 46° N 03:41:57 10° ENE visible
10 May -0.9 01:17:27 11° ENE 01:17:27 11° ENE 01:17:36 10° ENE visible
10 May -2.9 02:50:22 39° NW 02:51:10 50° N 02:54:29 10° ENE visible
10 May -3.0 04:24:58 10° WNW 04:28:19 53° NNE 04:31:38 10° E visible
11 May -2.8 02:04:21 46° NE 02:04:21 46° NE 02:07:01 10° ENE visible
11 May -2.7 03:37:31 10° WNW 03:40:48 47° N 03:44:05 10° E visible
12 May -1.6 01:18:16 21° ENE 01:18:16 21° ENE 01:19:34 10° ENE visible
12 May -2.7 02:51:11 19° WNW 02:53:17 45° N 02:56:33 10° ENE visible
12 May -3.7 04:26:56 10° WNW 04:30:20 83° NNE 04:33:43 10° ESE visible
13 May -0.9 00:32:06 10° ENE 00:32:06 10° ENE 00:32:07 10° ENE visible
13 May -2.7 02:05:02 38° NW 02:05:45 46° N 02:09:02 10° ENE visible
13 May -3.3 03:39:30 10° WNW 03:42:52 65° NNE 03:46:15 10° E visible
14 May -2.8 01:18:37 46° NNE 01:18:37 46° NNE 01:21:32 10° ENE visible
14 May -3.0 02:52:02 10° WNW 02:55:22 53° NNE 02:58:42 10° E visible
14 May -3.6 04:28:55 10° WNW 04:32:12 49° SSW 04:35:29 10° SE visible
14 May -3.4 22:50:46 10° SW 22:53:57 41° SSE 22:55:39 22° E visible
15 May -3.2 00:27:23 10° W 00:30:43 58° NNW 00:34:04 10° ENE visible
15 May -2.8 02:04:34 10° WNW 02:07:51 47° N 02:11:09 10° E visible
15 May -3.9 03:41:26 10° WNW 03:44:49 72° SSW 03:48:11 10° ESE visible
15 May -2.8 22:03:43 10° SSW 22:06:38 27° SE 22:09:32 10° E visible
15 May -3.6 23:39:52 10° WSW 23:43:14 72° NNW 23:46:37 10° ENE visible
16 May -2.6 01:17:04 10° WNW 01:20:20 45° N 01:23:36 10° ENE visible
16 May -3.8 02:53:59 10° WNW 02:57:23 84° NNE 03:00:46 10° ESE visible
16 May -2.5 04:31:12 10° W 04:33:55 22° SW 04:36:36 10° SSE visible
16 May -3.9 22:52:25 10° WSW 22:55:47 85° SSE 22:59:10 10° ENE visible
17 May -2.7 00:29:32 10° W 00:32:48 46° N 00:36:05 10° ENE visible
17 May -3.4 02:06:33 10° WNW 02:09:55 65° NNE 02:13:17 10° E visible
17 May -3.1 03:43:31 10° W 03:46:36 33° SW 03:49:40 10° SSE visible
17 May -3.8 22:05:03 10° SW 22:08:22 61° SSE 22:11:42 10° ENE visible
17 May -2.8 23:41:58 10° W 23:45:16 49° N 23:48:34 10° ENE visible
18 May -3.0 01:19:05 10° WNW 01:22:25 53° NNE 01:22:56 47° NE visible
18 May -3.1 22:54:25 10° W 22:57:45 58° NNW 23:01:06 10° ENE visible
